TimeCDT,TemperatureF,Dew PointF,Humidity,Sea Level PressureIn,VisibilityMPH,Wind Direction,Wind SpeedMPH,Gust SpeedMPH,PrecipitationIn,Events,Conditions,WindDirDegrees,DateUTC
12:15 AM,51.8,51.8,100,30.00,5.0,Calm,Calm,-,N/A,,Clear,0,2012-10-03 05:15:00
12:35 AM,51.8,51.8,100,30.00,4.0,Calm,Calm,-,N/A,,Clear,0,2012-10-03 05:35:00
12:55 AM,51.8,51.8,100,30.00,5.0,Calm,Calm,-,N/A,,Clear,0,2012-10-03 05:55:00
1:15 AM,51.8,51.8,100,30.00,7.0,Calm,Calm,-,N/A,,Clear,0,2012-10-03 06:15:00
1:35 AM,51.8,50.0,94,30.01,4.0,Calm,Calm,-,N/A,,Clear,0,2012-10-03 06:35:00
1:55 AM,51.8,51.8,100,30.01,5.0,Calm,Calm,-,N/A,,Clear,0,2012-10-03 06:55:00
2:15 AM,51.8,51.8,100,30.01,7.0,Calm,Calm,-,N/A,,Clear,0,2012-10-03 07:15:00
2:35 AM,51.8,51.8,100,30.01,5.0,Calm,Calm,-,N/A,,Clear,0,2012-10-03 07:35:00
2:55 AM,51.8,50.0,94,30.01,5.0,Calm,Calm,-,N/A,,Clear,0,2012-10-03 07:55:00
3:15 AM,51.8,50.0,94,30.01,5.0,Calm,Calm,-,N/A,,Clear,0,2012-10-03 08:15:00
3:35 AM,51.8,51.8,100,30.01,5.0,Calm,Calm,-,N/A,,Clear,0,2012-10-03 08:35:00
3:55 AM,51.8,51.8,100,30.01,4.0,Calm,Calm,-,N/A,,Clear,0,2012-10-03 08:55:00
4:15 AM,51.8,51.8,100,30.02,1.8,Calm,Calm,-,N/A,,Mist,0,2012-10-03 09:15:00
4:35 AM,50.0,50.0,100,30.03,5.0,Calm,Calm,-,N/A,,Clear,0,2012-10-03 09:35:00
4:55 AM,50.0,50.0,100,30.03,5.0,Calm,Calm,-,N/A,,Clear,0,2012-10-03 09:55:00
5:15 AM,50.0,50.0,100,30.04,5.0,Calm,Calm,-,N/A,,Clear,0,2012-10-03 10:15:00
5:35 AM,51.8,50.0,94,30.05,5.0,Calm,Calm,-,N/A,,Clear,0,2012-10-03 10:35:00
5:55 AM,50.0,50.0,100,30.06,5.0,Calm,Calm,-,N/A,,Clear,0,2012-10-03 10:55:00
6:15 AM,50.0,50.0,100,30.07,4.0,Calm,Calm,-,N/A,,Scattered Clouds,0,2012-10-03 11:15:00
6:35 AM,50.0,50.0,100,30.06,5.0,Calm,Calm,-,N/A,,Mostly Cloudy,0,2012-10-03 11:35:00
6:55 AM,50.0,50.0,100,30.07,7.0,Calm,Calm,-,N/A,,Scattered Clouds,0,2012-10-03 11:55:00
7:15 AM,51.8,51.8,100,30.07,5.0,Calm,Calm,-,N/A,,Clear,0,2012-10-03 12:15:00
7:35 AM,51.8,51.8,100,30.07,7.0,Calm,Calm,-,N/A,,Clear,0,2012-10-03 12:35:00
7:55 AM,53.6,53.6,100,30.08,7.0,Calm,Calm,-,N/A,,Clear,0,2012-10-03 12:55:00
8:15 AM,55.4,55.4,100,30.09,10.0,Calm,Calm,-,N/A,,Clear,0,2012-10-03 13:15:00
8:35 AM,57.2,55.4,94,30.09,10.0,Calm,Calm,-,N/A,,Clear,0,2012-10-03 13:35:00
8:55 AM,59.0,57.2,94,30.10,10.0,Calm,Calm,-,N/A,,Clear,0,2012-10-03 13:55:00
9:15 AM,60.8,59.0,94,30.11,10.0,Calm,Calm,-,N/A,,Clear,0,2012-10-03 14:15:00
9:35 AM,64.4,59.0,83,30.12,10.0,South,4.6,-,N/A,,Clear,190,2012-10-03 14:35:00
9:55 AM,66.2,59.0,78,30.12,10.0,South,4.6,-,N/A,,Clear,170,2012-10-03 14:55:00
10:15 AM,68.0,60.8,78,30.11,10.0,SSE,3.5,-,N/A,,Clear,160,2012-10-03 15:15:00
10:55 AM,71.6,60.8,69,30.11,10.0,South,4.6,-,N/A,,Clear,170,2012-10-03 15:55:00
11:15 AM,71.6,59.0,64,30.11,10.0,SSW,3.5,-,N/A,,Clear,200,2012-10-03 16:15:00
11:35 AM,73.4,60.8,65,30.11,10.0,SSE,3.5,-,N/A,,Clear,160,2012-10-03 16:35:00
11:55 AM,73.4,60.8,65,30.11,10.0,SE,5.8,-,N/A,,Clear,140,2012-10-03 16:55:00
12:15 PM,75.2,59.0,57,30.10,10.0,SW,6.9,-,N/A,,Clear,220,2012-10-03 17:15:00
12:35 PM,77.0,59.0,54,30.09,10.0,West,5.8,-,N/A,,Scattered Clouds,260,2012-10-03 17:35:00
12:55 PM,77.0,59.0,54,30.09,10.0,SSW,4.6,-,N/A,,Scattered Clouds,210,2012-10-03 17:55:00
1:15 PM,77.0,57.2,50,30.08,10.0,SSW,4.6,-,N/A,,Scattered Clouds,210,2012-10-03 18:15:00
1:35 PM,77.0,55.4,47,30.07,10.0,SSW,6.9,-,N/A,,Scattered Clouds,200,2012-10-03 18:35:00
2:15 PM,73.4,59.0,61,30.07,10.0,West,3.5,-,N/A,,Mostly Cloudy,260,2012-10-03 19:15:00
2:35 PM,75.2,59.0,57,30.07,10.0,Calm,Calm,-,N/A,,Scattered Clouds,0,2012-10-03 19:35:00
2:55 PM,77.0,57.2,50,30.06,10.0,SSW,4.6,-,N/A,,Scattered Clouds,200,2012-10-03 19:55:00
3:15 PM,77.0,57.2,50,30.06,10.0,Calm,Calm,-,N/A,,Scattered Clouds,0,2012-10-03 20:15:00
3:35 PM,75.2,57.2,53,30.07,10.0,Calm,Calm,-,N/A,,Mostly Cloudy,0,2012-10-03 20:35:00
3:55 PM,73.4,62.6,69,30.07,10.0,Calm,Calm,-,N/A,,Overcast,0,2012-10-03 20:55:00
4:15 PM,75.2,60.8,61,30.07,10.0,Calm,Calm,-,N/A,,Overcast,0,2012-10-03 21:15:00
4:35 PM,73.4,62.6,69,30.07,10.0,Calm,Calm,-,N/A,,Overcast,0,2012-10-03 21:35:00
4:55 PM,77.0,59.0,54,30.07,10.0,Calm,Calm,-,N/A,,Mostly Cloudy,0,2012-10-03 21:55:00
5:15 PM,77.0,59.0,54,30.07,10.0,Calm,Calm,-,N/A,,Clear,0,2012-10-03 22:15:00
5:35 PM,75.2,62.6,65,30.07,10.0,Calm,Calm,-,N/A,,Clear,0,2012-10-03 22:35:00
5:55 PM,73.4,64.4,73,30.07,10.0,Calm,Calm,-,N/A,,Clear,0,2012-10-03 22:55:00
6:15 PM,69.8,62.6,78,30.08,10.0,Calm,Calm,-,N/A,,Clear,0,2012-10-03 23:15:00
6:35 PM,68.0,64.4,88,30.08,10.0,Calm,Calm,-,N/A,,Clear,0,2012-10-03 23:35:00
6:55 PM,64.4,62.6,94,30.09,10.0,Calm,Calm,-,N/A,,Scattered Clouds,0,2012-10-03 23:55:00
7:15 PM,64.4,62.6,94,30.09,10.0,Calm,Calm,-,N/A,,Mostly Cloudy,0,2012-10-04 00:15:00
7:35 PM,64.4,62.6,94,30.09,10.0,Calm,Calm,-,N/A,,Mostly Cloudy,0,2012-10-04 00:35:00
7:55 PM,64.4,60.8,88,30.09,10.0,Calm,Calm,-,N/A,,Scattered Clouds,0,2012-10-04 00:55:00
8:15 PM,64.4,60.8,88,30.11,10.0,ESE,4.6,-,N/A,,Clear,120,2012-10-04 01:15:00
8:35 PM,66.2,60.8,83,30.12,10.0,Calm,Calm,-,N/A,,Clear,0,2012-10-04 01:35:00
8:55 PM,62.6,60.8,94,30.12,10.0,Calm,Calm,-,N/A,,Clear,0,2012-10-04 01:55:00
9:15 PM,62.6,60.8,94,30.13,10.0,Calm,Calm,-,N/A,,Clear,0,2012-10-04 02:15:00
9:35 PM,64.4,60.8,88,30.14,10.0,SE,5.8,-,N/A,,Scattered Clouds,140,2012-10-04 02:35:00
9:55 PM,64.4,60.8,88,30.14,10.0,SE,4.6,-,N/A,,Clear,140,2012-10-04 02:55:00
10:15 PM,62.6,60.8,94,30.14,10.0,SE,3.5,-,N/A,,Clear,140,2012-10-04 03:15:00
10:35 PM,62.6,60.8,94,30.14,10.0,SE,3.5,-,N/A,,Clear,140,2012-10-04 03:35:00
11:15 PM,62.6,60.8,94,30.16,10.0,Calm,Calm,-,N/A,,Clear,0,2012-10-04 04:15:00
11:35 PM,62.6,60.8,94,30.16,10.0,Calm,Calm,-,N/A,,Clear,0,2012-10-04 04:35:00
11:55 PM,62.6,60.8,94,30.16,10.0,Calm,Calm,-,N/A,,Clear,0,2012-10-04 04:55:00